Time,TemperatureF,DewpointF,PressureIn,WindDirection,WindDirectionDegrees,WindSpeedMPH,WindSpeedGustMPH,Humidity,HourlyPrecipIn,Conditions,Clouds,dailyrainin,SoftwareType,DateUTC
2013-05-27 00:07:00,54.2,50.0,30.10,South,184,3.0,8.0,84,0.00,,,0.00,weatherlink.com 1.10,2013-05-27 07:07:00,
2013-05-27 00:22:00,53.7,50.0,30.10,SW,215,2.0,8.0,87,0.00,,,0.00,weatherlink.com 1.10,2013-05-27 07:22:00,
2013-05-27 00:37:00,53.3,50.0,30.10,SSW,197,2.0,8.0,88,0.00,,,0.00,weatherlink.com 1.10,2013-05-27 07:37:00,
2013-05-27 00:52:00,53.2,50.0,30.10,South,183,3.0,8.0,89,0.00,,,0.00,weatherlink.com 1.10,2013-05-27 07:52:00,
2013-05-27 01:07:00,53.1,50.0,30.10,SSW,210,0.0,7.0,88,0.00,,,0.00,weatherlink.com 1.10,2013-05-27 08:07:00,
2013-05-27 01:22:00,52.9,50.0,30.10,SE,125,0.0,5.0,88,0.00,,,0.00,weatherlink.com 1.10,2013-05-27 08:22:00,
2013-05-27 01:37:00,52.3,49.0,30.10,SE,126,4.0,4.0,88,0.00,,,0.00,weatherlink.com 1.10,2013-05-27 08:37:00,
2013-05-27 01:52:00,52.3,49.0,30.09,SE,136,2.0,3.0,88,0.00,,,0.00,weatherlink.com 1.10,2013-05-27 08:52:00,
2013-05-27 02:07:00,52.5,49.0,30.09,SSW,204,0.0,4.0,87,0.00,,,0.00,weatherlink.com 1.10,2013-05-27 09:07:00,
2013-05-27 02:22:00,52.5,49.0,30.08,SE,145,4.0,4.0,86,0.00,,,0.00,weatherlink.com 1.10,2013-05-27 09:22:00,
2013-05-27 02:37:00,52.5,48.0,30.08,South,191,2.0,5.0,85,0.00,,,0.00,weatherlink.com 1.10,2013-05-27 09:37:00,
2013-05-27 02:52:00,52.7,48.0,30.08,SSW,207,2.0,5.0,84,0.00,,,0.00,weatherlink.com 1.10,2013-05-27 09:52:00,
2013-05-27 03:07:00,53.1,48.0,30.08,WSW,249,4.0,8.0,83,0.00,,,0.00,weatherlink.com 1.10,2013-05-27 10:07:00,
2013-05-27 03:22:00,53.6,48.0,30.08,NW,321,1.0,6.0,82,0.00,,,0.00,weatherlink.com 1.10,2013-05-27 10:22:00,
2013-05-27 03:38:00,53.3,48.0,30.08,WNW,302,2.0,5.0,82,0.00,,,0.00,weatherlink.com 1.10,2013-05-27 10:38:00,
2013-05-27 03:52:00,53.1,48.0,30.07,WSW,242,2.0,5.0,83,0.00,,,0.00,weatherlink.com 1.10,2013-05-27 10:52:00,
2013-05-27 04:07:00,53.1,48.0,30.07,WSW,239,4.0,6.0,83,0.00,,,0.00,weatherlink.com 1.10,2013-05-27 11:07:00,
2013-05-27 04:22:00,53.2,48.0,30.07,SW,225,5.0,6.0,83,0.00,,,0.00,weatherlink.com 1.10,2013-05-27 11:22:00,
2013-05-27 04:37:00,53.2,48.0,30.07,South,191,1.0,4.0,83,0.00,,,0.00,weatherlink.com 1.10,2013-05-27 11:37:00,
2013-05-27 04:52:00,53.0,48.0,30.06,SSW,203,3.0,4.0,83,0.00,,,0.00,weatherlink.com 1.10,2013-05-27 11:52:00,
2013-05-27 05:07:00,53.0,48.0,30.06,SW,226,3.0,6.0,83,0.00,,,0.00,weatherlink.com 1.10,2013-05-27 12:07:00,
2013-05-27 05:22:00,53.4,48.0,30.07,NW,308,4.0,7.0,83,0.00,,,0.00,weatherlink.com 1.10,2013-05-27 12:22:00,
2013-05-27 05:37:00,53.9,49.0,30.07,WSW,256,0.0,5.0,82,0.00,,,0.00,weatherlink.com 1.10,2013-05-27 12:37:00,
2013-05-27 05:52:00,54.0,49.0,30.07,WSW,252,0.0,3.0,83,0.00,,,0.00,weatherlink.com 1.10,2013-05-27 12:52:00,
2013-05-27 06:07:00,54.1,49.0,30.07,SSW,204,1.0,5.0,84,0.00,,,0.00,weatherlink.com 1.10,2013-05-27 13:07:00,
2013-05-27 06:22:00,54.6,50.0,30.07,SW,226,0.0,5.0,85,0.00,,,0.00,weatherlink.com 1.10,2013-05-27 13:22:00,
2013-05-27 06:38:00,54.9,51.0,30.07,WSW,255,2.0,4.0,86,0.00,,,0.00,weatherlink.com 1.10,2013-05-27 13:38:00,
2013-05-27 06:53:00,55.3,52.0,30.07,SSW,194,2.0,4.0,87,0.00,,,0.00,weatherlink.com 1.10,2013-05-27 13:53:00,
2013-05-27 07:08:00,56.0,52.0,30.07,SW,236,3.0,6.0,87,0.00,,,0.00,weatherlink.com 1.10,2013-05-27 14:08:00,
2013-05-27 07:23:00,56.5,52.0,30.08,SSW,210,4.0,5.0,86,0.00,,,0.00,weatherlink.com 1.10,2013-05-27 14:23:00,
2013-05-27 07:38:00,56.5,53.0,30.07,SW,222,1.0,6.0,88,0.00,,,0.00,weatherlink.com 1.10,2013-05-27 14:38:00,
2013-05-27 07:53:00,57.9,54.0,30.07,West,259,6.0,7.0,86,0.00,,,0.00,weatherlink.com 1.10,2013-05-27 14:53:00,
2013-05-27 08:08:00,58.4,54.0,30.07,West,267,2.0,6.0,84,0.00,,,0.00,weatherlink.com 1.10,2013-05-27 15:08:00,
2013-05-27 08:23:00,58.5,54.0,30.08,WSW,255,7.0,10.0,84,0.00,,,0.00,weatherlink.com 1.10,2013-05-27 15:23:00,
2013-05-27 08:38:00,59.1,54.0,30.08,WNW,302,3.0,8.0,83,0.00,,,0.00,weatherlink.com 1.10,2013-05-27 15:38:00,
2013-05-27 08:53:00,59.4,54.0,30.08,West,260,5.0,9.0,81,0.00,,,0.00,weatherlink.com 1.10,2013-05-27 15:53:00,
2013-05-27 09:08:00,60.0,54.0,30.09,West,281,7.0,8.0,80,0.00,,,0.00,weatherlink.com 1.10,2013-05-27 16:08:00,
2013-05-27 09:23:00,60.4,53.0,30.08,SW,224,5.0,11.0,77,0.00,,,0.00,weatherlink.com 1.10,2013-05-27 16:23:00,
2013-05-27 09:38:00,60.4,54.0,30.09,WNW,302,7.0,11.0,78,0.00,,,0.00,weatherlink.com 1.10,2013-05-27 16:38:00,
2013-05-27 09:53:00,60.3,53.0,30.08,West,277,4.0,11.0,77,0.00,,,0.00,weatherlink.com 1.10,2013-05-27 16:53:00,
2013-05-27 10:08:00,60.7,53.0,30.07,WNW,302,3.0,9.0,76,0.00,,,0.00,weatherlink.com 1.10,2013-05-27 17:08:00,
2013-05-27 10:23:00,61.4,53.0,30.07,WNW,284,10.0,11.0,75,0.00,,,0.00,weatherlink.com 1.10,2013-05-27 17:23:00,
2013-05-27 10:38:00,61.9,53.0,30.06,NW,316,4.0,11.0,73,0.00,,,0.00,weatherlink.com 1.10,2013-05-27 17:38:00,
2013-05-27 10:53:00,62.6,53.0,30.06,WNW,286,3.0,10.0,72,0.00,,,0.00,weatherlink.com 1.10,2013-05-27 17:53:00,
2013-05-27 11:08:00,61.8,54.0,30.07,SSW,205,3.0,8.0,75,0.00,,,0.00,weatherlink.com 1.10,2013-05-27 18:08:00,
2013-05-27 11:23:00,60.2,54.0,30.08,SW,226,4.0,8.0,81,0.00,,,0.00,weatherlink.com 1.10,2013-05-27 18:23:00,
2013-05-27 11:38:00,59.5,54.0,30.09,SSE,167,7.0,9.0,82,0.00,,,0.00,weatherlink.com 1.10,2013-05-27 18:38:00,
2013-05-27 11:53:00,59.9,54.0,30.10,SSW,197,6.0,8.0,82,0.00,,,0.00,weatherlink.com 1.10,2013-05-27 18:53:00,
2013-05-27 12:08:00,59.2,54.0,30.09,West,274,3.0,9.0,83,0.00,,,0.00,weatherlink.com 1.10,2013-05-27 19:08:00,
2013-05-27 12:23:00,59.0,55.0,30.09,SW,222,4.0,7.0,85,0.00,,,0.00,weatherlink.com 1.10,2013-05-27 19:23:00,
2013-05-27 12:38:00,58.6,55.0,30.10,SSW,204,2.0,7.0,88,0.00,,,0.00,weatherlink.com 1.10,2013-05-27 19:38:00,
2013-05-27 12:53:00,58.6,55.0,30.09,SSW,195,3.0,7.0,88,0.00,,,0.00,weatherlink.com 1.10,2013-05-27 19:53:00,
2013-05-27 13:08:00,58.5,55.0,30.09,SSW,195,4.0,8.0,87,0.00,,,0.00,weatherlink.com 1.10,2013-05-27 20:08:00,
2013-05-27 13:23:00,59.5,56.0,30.09,SE,145,5.0,6.0,87,0.00,,,0.00,weatherlink.com 1.10,2013-05-27 20:23:00,
2013-05-27 13:38:00,60.0,56.0,30.09,South,181,3.0,9.0,85,0.00,,,0.00,weatherlink.com 1.10,2013-05-27 20:38:00,
2013-05-27 13:53:00,60.7,56.0,30.09,WSW,255,8.0,9.0,83,0.00,,,0.00,weatherlink.com 1.10,2013-05-27 20:53:00,
2013-05-27 14:08:00,60.8,55.0,30.09,West,269,6.0,11.0,81,0.00,,,0.00,weatherlink.com 1.10,2013-05-27 21:08:00,
2013-05-27 14:23:00,60.1,55.0,30.09,SSW,195,8.0,12.0,82,0.00,,,0.00,weatherlink.com 1.10,2013-05-27 21:23:00,
2013-05-27 14:38:00,59.2,54.0,30.09,SW,229,5.0,12.0,84,0.00,,,0.00,weatherlink.com 1.10,2013-05-27 21:38:00,
2013-05-27 14:53:00,58.5,54.0,30.09,SSW,204,6.0,11.0,86,0.00,,,0.00,weatherlink.com 1.10,2013-05-27 21:53:00,
2013-05-27 15:08:00,58.6,55.0,30.08,South,173,5.0,11.0,86,0.00,,,0.00,weatherlink.com 1.10,2013-05-27 22:08:00,
2013-05-27 15:23:00,59.1,55.0,30.09,SW,235,5.0,13.0,85,0.00,,,0.00,weatherlink.com 1.10,2013-05-27 22:23:00,
2013-05-27 15:38:00,60.1,55.0,30.08,WSW,249,4.0,12.0,82,0.00,,,0.00,weatherlink.com 1.10,2013-05-27 22:38:00,
2013-05-27 15:53:00,59.8,54.0,30.08,SW,226,12.0,12.0,82,0.00,,,0.00,weatherlink.com 1.10,2013-05-27 22:53:00,
2013-05-27 16:08:00,59.5,55.0,30.08,SSE,156,6.0,10.0,84,0.00,,,0.00,weatherlink.com 1.10,2013-05-27 23:08:00,
2013-05-27 16:23:00,59.2,54.0,30.07,SSW,195,8.0,10.0,83,0.00,,,0.00,weatherlink.com 1.10,2013-05-27 23:23:00,
2013-05-27 16:38:00,58.3,54.0,30.08,SSW,200,6.0,11.0,84,0.00,,,0.00,weatherlink.com 1.10,2013-05-27 23:38:00,
2013-05-27 16:53:00,58.0,54.0,30.08,SSW,193,3.0,11.0,85,0.00,,,0.00,weatherlink.com 1.10,2013-05-27 23:53:00,
2013-05-27 17:08:00,58.5,53.0,30.07,South,169,5.0,11.0,83,0.00,,,0.00,weatherlink.com 1.10,2013-05-28 00:08:00,
2013-05-27 17:23:00,58.2,54.0,30.07,South,172,5.0,9.0,85,0.00,,,0.00,weatherlink.com 1.10,2013-05-28 00:23:00,
2013-05-27 17:38:00,57.8,54.0,30.07,South,187,8.0,10.0,86,0.00,,,0.00,weatherlink.com 1.10,2013-05-28 00:38:00,
2013-05-27 17:53:00,57.0,53.0,30.06,SSE,162,8.0,10.0,87,0.00,,,0.00,weatherlink.com 1.10,2013-05-28 00:53:00,
2013-05-27 18:08:00,56.6,54.0,30.05,South,190,8.0,10.0,89,0.00,,,0.00,weatherlink.com 1.10,2013-05-28 01:08:00,
2013-05-27 18:23:00,56.6,53.0,30.05,SSW,195,3.0,11.0,88,0.00,,,0.00,weatherlink.com 1.10,2013-05-28 01:23:00,
2013-05-27 18:39:00,55.8,53.0,30.04,SW,232,6.0,10.0,90,0.00,,,0.00,weatherlink.com 1.10,2013-05-28 01:39:00,
2013-05-27 18:54:00,55.9,53.0,30.04,SSW,195,5.0,11.0,91,0.00,,,0.00,weatherlink.com 1.10,2013-05-28 01:54:00,
2013-05-27 19:09:00,56.0,54.0,30.04,WSW,243,2.0,9.0,91,0.00,,,0.00,weatherlink.com 1.10,2013-05-28 02:09:00,
2013-05-27 19:24:00,56.0,54.0,30.04,SW,231,5.0,9.0,92,0.00,,,0.00,weatherlink.com 1.10,2013-05-28 02:24:00,
2013-05-27 19:39:00,55.9,54.0,30.03,SSW,193,7.0,11.0,92,0.00,,,0.00,weatherlink.com 1.10,2013-05-28 02:39:00,
2013-05-27 19:54:00,56.0,54.0,30.02,SSW,200,4.0,9.0,93,0.00,,,0.00,weatherlink.com 1.10,2013-05-28 02:54:00,
2013-05-27 20:09:00,56.0,54.0,30.03,SSW,200,5.0,11.0,93,0.00,,,0.00,weatherlink.com 1.10,2013-05-28 03:09:00,
2013-05-27 20:24:00,56.0,54.0,30.02,SSW,201,6.0,10.0,93,0.00,,,0.00,weatherlink.com 1.10,2013-05-28 03:24:00,
2013-05-27 20:39:00,56.1,54.0,30.02,SW,217,4.0,7.0,93,0.00,,,0.00,weatherlink.com 1.10,2013-05-28 03:39:00,
2013-05-27 20:54:00,56.1,54.0,30.01,West,263,6.0,9.0,94,0.00,,,0.00,weatherlink.com 1.10,2013-05-28 03:54:00,
2013-05-27 21:09:00,56.1,54.0,30.01,SSW,198,2.0,8.0,94,0.00,,,0.00,weatherlink.com 1.10,2013-05-28 04:09:00,
2013-05-27 21:24:00,56.1,54.0,30.00,WNW,283,4.0,8.0,94,0.00,,,0.00,weatherlink.com 1.10,2013-05-28 04:24:00,
2013-05-27 21:39:00,56.3,55.0,30.01,South,179,3.0,9.0,94,0.00,,,0.00,weatherlink.com 1.10,2013-05-28 04:39:00,
2013-05-27 21:54:00,56.6,55.0,30.01,SSW,207,2.0,8.0,94,0.00,,,0.00,weatherlink.com 1.10,2013-05-28 04:54:00,
2013-05-27 22:09:00,56.5,55.0,30.02,SSW,212,2.0,8.0,94,0.00,,,0.00,weatherlink.com 1.10,2013-05-28 05:09:00,
2013-05-27 22:24:00,56.3,55.0,30.02,SSW,203,2.0,11.0,94,0.01,,,0.01,weatherlink.com 1.10,2013-05-28 05:24:00,
2013-05-27 22:39:00,56.2,55.0,30.02,SW,221,5.0,9.0,95,0.01,,,0.01,weatherlink.com 1.10,2013-05-28 05:39:00,
2013-05-27 22:54:00,55.9,55.0,30.01,SSW,204,5.0,10.0,95,0.02,,,0.02,weatherlink.com 1.10,2013-05-28 05:54:00,
2013-05-27 23:09:00,55.8,54.0,30.00,West,264,5.0,9.0,95,0.03,,,0.03,weatherlink.com 1.10,2013-05-28 06:09:00,
2013-05-27 23:24:00,55.8,54.0,29.99,WSW,242,6.0,9.0,95,0.02,,,0.03,weatherlink.com 1.10,2013-05-28 06:24:00,
2013-05-27 23:39:00,55.7,54.0,29.99,SSE,159,2.0,9.0,95,0.02,,,0.03,weatherlink.com 1.10,2013-05-28 06:39:00,
2013-05-27 23:54:00,55.8,55.0,29.99,SSW,203,3.0,7.0,96,0.01,,,0.03,weatherlink.com 1.10,2013-05-28 06:54:00,